map of CRD home
Great Circle Mapper logo
CRD - Airport
Location
City:  Comodoro Rivadavia, Chubut, Argentina
Name:General E. Mosconi
ICAO / IATA:SAVC / CRD

Details
Type:Airport (Aerodrome, Airfield)
Use:Public/Civil, Military
Latitude:4547'07"S (-45.785346)
Longitude:6727'56"W (-67.465507)
Datum:WGS 1984
Elevation:190 ft (58 m)
Runways:1
Longest:9275 × 164 ft (2827 × 50 m), paved

Time
Time Zone:UTC-3
Local Time:

Weather
METAR:SAVC 241300Z 20005KT 060V300 CAVOK 20/03 Q1016
TAF:SAVC 240500Z 2406/2506 32010KT TX19/2419Z TN10/2412Z

Related Locations
Nearby:
Farthest:UUN: 12362 mi / 19894 km
Baruun-Urt, MN

Find:

   beyond  
but within

Other Information
Maps:
NOTAMs:
Links:
Sources:

  
flag of Argentina
flag of Chubut
  

Sectional Chart

Flight Planning
at skyvector.com

Satellite Image

Google Maps Satellite View

 

Copyright © 2004-2014 Karl L. Swartz. All rights reserved.
The Great Circle Mapper name and logo are trademarks of the Great Circle Mapper.
All other trademarks mentioned herein belong to their respective owners.
Please see credits for attibutions and further copyright information.

  Follow gcmap on Facebook Follow gcmap on Twitter

hCard Microformat

Geo Microformat